COSMOS 2037

Satellite information

Favourite Embed

Satellite Type and Status

PAYLOADIN ORBIT

Key statistics

Satellite COSMOS 2037 at a glance.

Uptime

13042

Days in orbit

Revolutions

≈ 12.4

Per day

Orbit

LEO

Low Earth Orbit

Inclination

73.6

Latest

Satellite identification and parameters

Extended collection of information and parameters for COSMOS 2037.

Object identification

Identified? True

Debris? False

Object name: COSMOS 2037

International designator: 1989-068A

Object number (NORAD): 20196

Object ID (CCSDS): 20196

Country: COMMONWEALTH OF INDEPENDENT STATES (CIS)

Current information (Y/N): Y

RCS size: LARGE

Orbital parameters

Period: 116.079 minutes

Inclination: 73.563 deg

SMA: 7882.478 km

Apoapsis: 1523.205 km

Periapsis: 1485.48 km

RAAN: 120.1507 deg

Eccentricy: 0.002393

Argument of periapsis: 46.978 deg

Mean anomaly: 342.4635 deg

Mean motion: 12.40533913 rev/day

Mean motion (dot): -0.00000021 rev/day2

B* drag term: -0.000024702 1/REarth

Two-line elements (TLE)

Creation date: May 12, 2025, 2:31 a.m.

Reference frame: TEME

Reference center: EARTH

Epoch: May 11, 2025, 11:08 p.m. UTC

TLE line 0: 0 COSMOS 2037

TLE line 1: 1 20196U 89068A 25131.96408286 -.00000021 00000-0 -24702-4 0 9998

TLE line 2: 2 20196 73.5630 120.1507 0023930 46.9780 342.4635 12.40533913615966

Live tracking on map

Real-time ground track for satellite COSMOS 2037.

In-orbit conjunctions

A list of the most updated potential collisions computed for object COSMOS 2037.

Target Orbit TCA Probability of collision Miss distance Type
SL-8 DEB LEO 2025-03-26 18:05:34 0.001360519 411.0 (m) DEBRIS

Associated space launch

A satellite for the GEO-IK geodetic system

COSMOS 2037 was lifted into orbit during the mission ‘Tsiklon-3 | Geo-IK 11’, on board a Tsiklon-3 space rocket.

The launch took place on Aug. 28, 1989, 12:14 a.m. from 32/2.

For more information about the launch, click the button.

Launch to space Tsiklon-3 | Geo-IK 11
Tsiklon-3 | Geo-IK 11

Agency: N/A

Status: Launch Successful

Launch date: Aug. 28, 1989, 12:14 a.m. UTC

Rocket: Tsiklon-3

Launch pad: 32/2

Location: Plesetsk Cosmodrome, Russian Federation

...

Latest news about this satellite

There are no fresh news available about this satellite. Check back as we update our databases every day.


Newsletter sign-up

Weekly statistics, charts and insights to help you stay on top of the space industry.